RH
23 40 32 28 26 23 26 28 33 29 29 31 38 41 37 48 51 53 62 65 59 66 63 55 55 67 71 82 86 96 100 100 100 99 98 99 99 100 97 96 89 86 83 79
36 32 23 23 26 26 27 31 34 31 28 32 35 37 42 56 52 53 66 66 57 59 59 56 54 59 69 61 84 89 99 100 100 100 99 99 100 99 99 99 98 96 95 93
36 24 22 23 26 25 27 30 32 36 39 36 39 42 39 46 47 56 60 61 53 56 58 56 55 57 58 58 54 75 86 98 99 98 98 94 92 94 96 98 97 98 99 99
27 22 25 30 25 24 32 27 30 39 50 51 39 58 42 49 51 48 52 57 63 58 56 54 55 56 50 52 44 50 67 74 88 96 98 100 100 100 100 99 96 92 91 93
30 26 28 30 23 22 29 29 34 37 48 53 50 56 51 51 48 52 51 53 64 58 58 58 52 52 50 46 42 37 44 50 46 56 72 86 93 98 96 91 84 82 86 84
26 24 26 25 24 25 26 37 49 48 64 80 51 53 51 51 40 35 45 48 57 51 47 44 43 49 49 42 40 40 35 36 34 31 43 42 47 50 55 52 60 62 51 55
46 31 24 22 29 30 39 55 75 68 86 71 46 51 49 39 36 36 43 48 49 44 44 46 43 46 47 44 40 39 35 37 32 28 29 35 38 42 43 46 44 47 44 39
56 60 29 23 26 32 36 44 66 61 70 61 47 57 44 43 38 34 35 41 44 44 41 47 42 43 45 44 41 38 36 35 34 31 34 32 32 33 36 39 40 38 44 45
49 52 26 23 24 29 36 54 34 48 57 67 61 45 43 42 41 39 36 41 44 43 44 49 44 41 42 44 40 36 35 36 35 36 34 32 33 35 34 33 32 33 36 39
37 62 37 28 27 28 31 32 49 66 70 74 66 54 56 42 41 46 47 44 44 46 46 48 46 41 39 39 41 35 34 34 33 35 37 37 37 35 35 35 37 35 33 33
32 47 50 36 40 43 43 44 38 45 58 71 80 63 44 38 35 41 47 46 46 46 47 46 44 40 37 36 37 37 34 33 34 34 34 35 37 36 36 38 41 41 38 36
35 60 81 66 33 28 31 35 35 61 63 60 66 61 34 38 36 34 39 46 46 46 47 46 41 39 35 33 33 35 36 34 35 35 35 36 38 66 42 35 35 36 39 39
44 70 89 74 46 43 39 34 33 36 47 62 70 65 36 38 44 44 47 50 50 48 47 46 41 38 35 33 32 34 36 38 37 44 39 51 39 40 50 42 39 39 38 39
45 69 75 87 74 66 74 65 51 51 84 75 60 52 40 36 48 47 51 50 49 48 47 45 43 39 34 32 33 35 38 44 76 87 67 62 43 41 43 42 42 42 42 42
45 73 74 67 63 65 66 66 63 76 70 83 67 67 54 50 45 53 49 47 48 48 43 42 43 41 35 32 34 38 60 77 62 51 44 44 47 64 43 43 43 44 44 45
53 80 67 78 64 64 74 67 67 67 66 66 64 67 48 58 64 74 71 49 48 48 49 43 42 41 37 35 47 63 89 93 96 90 88 95 69 59 46 44 44 46 45 46
54 68 82 82 71 73 84 73 71 64 62 61 77 61 67 74 76 81 58 48 49 51 49 44 46 45 60 77 78 88 92 94 95 96 96 96 89 71 50 46 46 46 46 48
63 66 96 96 81 98 55 48 46 57 53 57 78 83 80 81 75 51 49 50 54 58 52 60 82 95 100 93 79 83 94 96 97 96 96 96 80 56 49 48 48 46 48 50
67 70 96 97 87 69 64 56 51 51 62 90 88 81 82 78 78 57 57 62 72 71 71 87 97 99 96 96 96 96 97 97 96 96 95 86 55 52 51 50 50 49 52 52
66 72 88 99 97 94 57 52 49 51 77 87 87 91 95 91 92 89 70 67 65 64 82 94 96 96 96 96 96 96 96 96 96 95 94 60 52 52 50 50 51 54 56 63
88 93 97 96 97 87 58 50 47 79 80 97 99 98 93 97 94 88 63 66 74 83 91 94 96 96 96 96 96 96 96 96 95 80 55 53 52 52 52 55 58 63 66 65
82 94 96 96 98 92 51 64 83 93 99 100 97 92 91 87 88 87 83 90 93 98 98 97 96 97 96 95 95 96 95 86 64 55 55 56 57 59 62 66 69 68 69 73
84 67 84 80 75 84 97 96 97 98 96 94 93 80 81 82 92 90 96 98 99 97 97 98 96 97 96 95 94 85 64 57 57 57 59 62 64 67 73 72 72 75 76 78
66 74 88 95 89 94 96 94 92 95 97 94 86 88 86 92 95 98 96 97 98 97 97 96 95 95 94 82 58 58 58 58 59 61 65 69 75 78 74 78 80 80 81 84
88 94 99 96 92 95 94 97 97 96 95 91 93 96 95 95 97 96 98 98 98 96 96 94 86 61 58 59 58 56 59 60 64 68 71 80 78 84 87 86 84 85 85 87
96 94 99 96 97 98 96 96 95 95 97 95 92 94 97 94 96 95 98 97 94 91 74 59 59 60 60 59 59 62 65 67 70 77 84 80 90 94 84 85 77 74 92 86
Wind_Speed
3 7 3 4 2 3 5 4 5 4 2 4 5 9 12 6 7 7 6 6 5 5 5 8 10 14 22 26 29 30 29 28 26 23 13 14 20 17 17 16 15 15 14 14
6 2 2 4 4 3 5 4 4 6 6 6 6 11 6 6 3 5 7 6 6 4 4 6 10 12 16 21 25 29 29 28 26 22 17 10 7 18 20 18 17 15 15 13
5 2 3 2 4 6 4 2 3 6 7 4 6 5 1 1 4 4 4 4 5 6 4 2 5 9 11 15 19 22 25 26 25 24 19 14 15 19 22 24 23 23 20 18
3 1 3 4 1 3 5 3 2 5 5 3 4 4 3 3 5 6 7 7 6 6 4 3 2 5 8 10 13 16 19 23 23 21 22 22 20 18 16 20 21 25 25 24
4 2 3 2 2 1 8 8 8 4 1 3 4 3 6 3 4 7 9 8 7 7 7 6 5 4 5 7 10 12 14 17 19 20 22 21 21 15 15 16 18 19 22 26
2 1 1 2 5 4 6 6 5 3 3 2 3 4 5 4 4 1 2 7 9 8 7 9 8 7 5 5 5 7 10 14 15 17 17 19 20 20 20 21 19 21 24 25
5 1 1 1 4 5 8 6 4 5 3 4 4 1 8 4 2 2 5 8 9 8 7 7 9 8 6 5 5 5 8 11 13 15 17 16 16 18 20 22 24 23 25 26
3 7 1 2 1 2 3 3 3 4 3 5 3 5 4 3 3 3 3 8 7 7 6 7 12 10 8 6 5 5 8 10 11 13 15 15 17 17 17 17 18 21 20 21
5 5 1 0 0 2 3 4 2 1 3 1 4 6 1 1 3 3 3 7 8 7 8 9 14 13 10 7 6 6 7 8 9 10 12 14 15 15 16 16 17 18 18 18
1 5 3 1 1 1 1 2 3 2 4 5 5 6 4 2 4 5 6 8 8 8 9 8 15 16 12 9 6 6 6 7 8 9 10 12 13 14 14 15 16 16 16 17
0 2 6 2 2 4 1 0 1 2 4 3 4 6 5 4 2 4 7 9 9 9 10 9 15 17 14 10 7 5 5 6 7 7 8 9 10 12 13 15 15 15 15 16
2 2 4 7 3 2 1 3 4 3 5 3 3 7 6 6 5 1 6 6 6 7 7 8 18 21 19 14 10 8 6 5 6 7 9 9 10 10 14 15 15 15 15 15
3 1 5 5 1 2 2 2 3 3 2 9 4 6 2 5 7 6 6 7 7 8 5 7 14 17 19 16 14 11 8 6 6 7 7 8 9 9 8 10 11 12 13 14
5 3 6 6 7 4 7 5 7 7 5 6 14 17 17 16 6 4 6 6 7 8 5 7 9 15 19 19 16 12 9 8 4 5 4 5 7 8 9 9 10 11 13 13
5 6 7 13 14 11 17 21 17 12 16 11 22 14 21 11 2 5 2 3 6 6 1 7 9 13 19 20 18 15 11 6 5 3 5 6 7 7 8 10 10 10 11 12
3 4 2 5 12 14 16 20 19 17 18 19 22 23 9 6 4 6 6 5 6 8 8 6 7 14 18 20 19 14 7 2 2 1 1 4 7 10 11 11 12 12 12 12
6 4 1 7 2 5 13 13 6 5 5 6 8 2 3 3 4 5 4 5 6 7 7 1 6 13 15 17 16 9 5 4 2 1 3 4 7 9 11 11 12 13 14 14
6 5 2 4 3 5 6 2 6 9 0 3 6 3 1 3 4 4 5 5 6 6 6 9 12 15 14 13 11 9 4 2 1 1 3 5 7 10 11 11 12 14 14 15
11 6 3 3 5 11 10 2 2 2 2 3 1 4 2 5 5 3 5 6 5 6 12 14 13 13 11 8 6 4 2 0 1 1 4 6 10 11 11 12 14 15 15 17
2 2 6 4 4 6 1 2 4 2 5 3 5 4 6 8 7 1 4 5 8 12 11 12 10 9 8 6 4 3 1 1 1 3 6 10 10 10 12 12 13 14 15 16
3 2 9 10 7 8 2 2 2 2 3 0 2 4 6 4 2 0 4 8 10 9 9 8 8 9 6 4 3 3 3 3 5 7 9 10 10 10 10 11 13 14 13 15
8 7 4 3 5 9 3 0 5 1 2 3 2 4 5 5 2 4 4 4 4 5 7 6 7 6 4 4 4 4 4 5 7 9 10 9 10 11 10 11 12 13 13 13
3 6 4 8 5 3 4 3 5 4 2 3 3 6 5 6 1 4 3 3 7 7 6 6 5 4 2 3 4 4 5 7 9 10 10 10 11 10 9 10 12 12 11 14
3 2 2 2 3 3 3 6 6 3 2 3 4 6 5 2 3 4 4 5 7 6 5 4 4 3 3 2 3 5 6 9 9 10 11 10 9 9 12 10 11 12 15 17
2 3 3 7 1 5 4 5 2 3 3 2 7 7 5 4 4 4 3 6 6 3 2 2 2 3 2 5 6 7 7 9 10 10 10 8 10 10 12 11 13 15 15 15
5 2 3 3 2 2 2 3 3 3 2 4 4 4 8 6 5 7 6 5 3 2 2 2 4 5 7 7 7 7 7 9 10 9 7 12 10 12 13 14 17 13 13 14
Wind_Direction
359 61 34 337 320 243 276 270 292 298 236 315 246 266 269 192 179 176 168 150 140 114 108 50 25 18 21 25 23 26 25 25 29 31 28 30 44 42 39 32 21 11 5 349
28 71 295 291 314 281 316 290 333 297 318 316 281 284 317 143 150 174 182 170 151 112 77 43 27 22 24 22 25 28 31 34 35 37 41 46 56 52 48 45 40 34 23 17
124 242 308 307 17 5 334 108 303 262 321 305 321 331 123 96 89 117 153 162 150 154 139 68 33 30 26 26 23 28 34 37 41 53 54 64 63 59 51 52 52 51 49 46
97 255 344 331 87 47 312 196 306 299 30 304 69 286 305 177 205 218 201 192 183 160 143 143 74 39 34 34 27 28 35 40 40 46 62 54 54 55 45 57 57 58 56 57
279 347 2 338 294 68 250 306 284 222 217 8 317 59 272 127 267 254 219 204 190 184 173 176 169 129 67 51 41 38 40 46 46 49 55 58 59 58 55 56 53 54 53 52
286 14 151 242 286 221 294 317 5 81 95 7 237 116 279 210 201 285 182 186 182 184 178 170 164 146 122 101 85 58 54 52 52 54 57 60 60 55 46 46 46 43 43 44
335 267 266 295 328 358 14 19 349 1 7 240 218 28 248 225 163 148 190 189 189 189 173 166 167 165 157 131 111 83 68 61 56 60 63 62 60 59 52 43 40 41 39 37
7 332 247 347 106 279 314 105 117 301 299 285 279 242 265 46 55 13 345 184 182 188 183 180 181 178 169 150 120 93 77 71 59 57 58 61 61 59 57 50 46 41 38 37
5 282 20 351 34 88 332 53 180 263 290 350 259 281 302 303 285 276 227 171 203 200 197 190 187 185 176 165 141 123 106 89 73 64 59 57 55 54 53 52 48 45 37 34
333 297 262 184 88 29 109 221 30 23 321 296 292 289 235 274 268 237 251 239 232 218 205 195 185 183 177 170 153 132 114 93 80 72 62 55 52 50 50 47 44 42 38 34
316 143 293 23 203 196 31 27 195 196 165 235 295 268 214 202 162 232 257 241 235 226 213 192 181 180 170 165 163 150 130 114 94 79 65 58 52 42 38 39 33 33 33 32
207 183 270 250 324 331 148 166 150 140 273 247 222 267 284 173 131 53 296 319 295 255 226 174 170 172 167 166 163 155 139 110 89 84 71 53 47 37 25 23 20 19 21 22
186 265 310 313 5 351 78 221 220 233 209 227 223 259 184 123 60 29 54 22 8 350 207 150 155 165 170 169 160 149 140 121 99 73 67 45 33 38 30 12 9 11 12 14
129 221 195 250 257 279 289 251 234 245 244 268 232 272 282 292 340 29 34 14 347 333 217 159 159 172 174 166 157 146 126 112 79 58 45 51 18 22 18 13 11 10 8 8
176 224 223 247 266 272 268 277 269 236 243 246 272 265 273 301 96 65 37 334 331 333 341 181 172 173 166 158 151 136 124 107 80 71 38 42 27 9 355 1 5 5 3 1
194 263 289 252 255 250 266 267 262 250 252 248 256 268 319 59 45 356 351 3 350 346 325 203 173 160 151 147 137 136 130 144 160 94 350 347 2 358 352 350 351 351 353 355
174 198 220 271 39 302 279 251 229 211 206 213 225 172 21 350 324 312 341 15 354 332 318 202 105 117 125 127 136 124 139 146 180 299 9 354 354 348 338 339 343 343 345 345
187 159 183 277 2 249 244 268 228 215 125 347 102 95 32 337 289 79 32 32 10 343 29 65 88 94 104 118 117 136 157 186 239 352 344 346 340 325 330 336 339 341 343 343
220 165 214 239 225 290 285 231 199 238 210 25 112 24 356 314 267 121 46 63 49 50 64 76 92 100 109 105 104 116 128 201 311 349 345 332 320 325 330 334 337 339 341 340
55 225 193 164 234 252 211 10 34 28 255 47 17 328 342 347 328 31 20 76 67 71 87 94 94 94 93 86 91 97 83 15 6 325 324 315 320 325 328 332 336 337 334 335
142 201 221 226 247 276 181 156 88 163 292 104 342 354 333 320 317 67 96 76 81 87 93 98 99 101 97 83 83 75 38 15 331 325 314 325 332 328 332 328 333 337 337 332
173 176 196 205 236 267 106 47 183 114 91 14 27 349 320 312 269 117 107 96 97 95 92 102 105 102 88 68 58 37 24 337 320 318 324 330 329 328 325 333 337 337 339 340
220 208 191 191 216 78 30 42 63 20 19 28 340 319 327 322 174 136 134 117 115 101 89 94 101 100 81 47 27 341 317 320 324 328 335 334 334 339 342 338 334 338 338 332
270 10 242 360 47 84 124 82 66 48 36 47 18 354 350 26 106 109 122 117 109 103 89 83 79 53 30 354 335 325 324 322 328 331 333 337 340 340 335 341 339 332 329 326
191 122 196 258 299 128 80 73 102 72 44 86 57 23 358 101 79 94 94 108 108 96 48 30 8 338 353 342 335 331 321 322 327 327 331 329 328 333 335 333 330 326 321 313
187 211 212 265 84 18 114 119 123 121 91 44 99 60 34 88 95 112 99 104 101 46 345 337 340 329 326 327 330 329 317 319 320 322 321 327 327 329 327 326 324 328 318 319